Regional Weather Roundup
Issued by NWS

Home | Current Version | Previous Version | Graphics & Text | Print | Product List | Glossary On
Versions: 1 2 3 4 5 6 7 8 9 10 11 12 13 14 15 16 17 18 19 20 21 22 23 24 25 26 27 28 29 30 31 32 33 34 35 36 37 38 39 40 41 42 43 44 45 46 47 48 49 50
000
ASUS43 KLOT 202103
RWRIL

ILLINOIS REGIONAL WEATHER ROUNDUP
NATIONAL WEATHER SERVICE CHICAGO/ROMEOVILLE IL
300 PM CST FRI JAN 20 2017

NOTE: "FAIR" INDICATES FEW OR NO CLOUDS BELOW 12,000 FEET WITH NO
SIGNIFICANT WEATHER AND/OR OBSTRUCTIONS TO VISIBILITY.

* THESE STATIONS ARE NOT UNDER NWS QUALITY CONTROL. THEY ALSO MAY NOT
  REPORT WEATHER SUCH AS PRECIPITATION OR FOG.

ILZ001-002-007-009-015-016-024-202200-
NORTHWEST ILLINOIS

CITY           SKY/WX    TMP DP  RH WIND       PRES   REMARKS
MOLINE         CLOUDY    45  42  89 S7        29.59R
STERLING*      CLOUDY    41  41 100 E5        29.60S FOG
SAVANNA*       CLOUDY    41  40  95 SE5       29.59S FOG
$$

ILZ003-004-008-010-011-017-018-202200-
NORTH CENTRAL ILLINOIS

CITY           SKY/WX    TMP DP  RH WIND       PRES   REMARKS
ROCKFORD       FOG       41  39  93 SE7       29.63R VSB 1
FREEPORT*      FOG       39  38  99 E5        29.61R VSB 1/2
ROCHELLE*      CLOUDY    40  40  99 SE7       29.61S FOG
DE KALB*       CLOUDY    40  40  99 SE8       29.62R FOG
$$

ILZ005-006-012>014-019>023-202200-
NORTHEAST ILLINOIS

CITY           SKY/WX    TMP DP  RH WIND       PRES   REMARKS
CHICAGO-OHARE  CLOUDY    41  39  93 SE3       29.62R FOG
CHICAGO-MIDWAY CLOUDY    42  39  89 SE5       29.63R FOG
AURORA         CLOUDY    43  40  89 SE7       29.62R FOG
LANSING*       CLOUDY    44  44 100 CALM      29.63R
JOLIET*        CLOUDY    46  44  93 S3        29.63R
WAUKEGAN       FOG       38  38 100 SE5       29.62S VSB 1/8 WCI  34
DUPAGE AIRPORT CLOUDY    41  39  93 SE6       29.62R FOG
KANKAKEE*      CLOUDY    46  46  98 CALM      29.64R
WHEELING       FOG       39  38  96 VRB3      29.64R VSB 1
MORRIS*        CLOUDY    43  41  94 CALM      29.62R
ROMEOVILLE*    CLOUDY    43  43 100 S6        29.63R
NORTHERLY ISL    N/A     36  35  96 CALM        N/A
$$

LMZ740>746-202200-
SOUTHERN LAKE MICHIGAN

STATION/POSITION SKY/WX   TEMP    WIND        PRES    VSBY  WAVE
                          AIR SEA DIR/SP/G                  HT/PER
                          (F)     (DEG/KT/KT) (MB)    (MI)  (FT/S)
HARRISON CRIB              37     100/  8/  8   N/A
BURNHAM HARBOR             36     180/  2/  6   N/A
CALUMET HARBOR             36      50/  4/  5 1002.8R
BURNS HARBOR               36      80/  7/  8 1004.1F
MICHIGAN CITY              36      40/  4/  5   N/A
$$

ILZ025>027-034>036-040-047-049-050-058-095>099-202200-
WEST-CENTRAL ILLINOIS

CITY           SKY/WX    TMP DP  RH WIND       PRES   REMARKS
QUINCY         CLOUDY    49  48  97 SE6       29.55F FOG
GALESBURG*     CLOUDY    45  44  99 CALM      29.59R
MACOMB*        CLOUDY    46  46 100 SE7       29.60S
JACKSONVILLE*  CLOUDY    49  48  93 S6        29.58R
PITTSFIELD*    CLOUDY    50  49  97 E3        29.58S
$$

ILZ028>032-037-038-041>044-048-051>054-059>061-202200-
CENTRAL ILLINOIS

CITY           SKY/WX    TMP DP  RH WIND       PRES   REMARKS
BLOOMINGTON    FOG       47  47 100 S8        29.62R VSB 1/4
DECATUR        CLOUDY    52  50  93 S13       29.61R
PEORIA         CLOUDY    47  46  97 S8        29.61R
LACON*         CLOUDY    45  44  99 CALM      29.60R
LINCOLN*       CLOUDY    50  50 100 S3        29.61R FOG
SPRINGFIELD    CLOUDY    52  50  93 CALM      29.61R FOG
TAYLORVILLE    CLOUDY    51  47  89 S6        29.60S
$$

ILZ033-039-045-046-055>057-062-063-202200-
EAST-CENTRAL ILLINOIS

CITY           SKY/WX    TMP DP  RH WIND       PRES   REMARKS
CHAMPAIGN      CLOUDY    51  48  89 S9        29.63R
MATTOON        CLOUDY    51  47  86 S6        29.62R
PARIS*         CLOUDY    51  49  91 S9        29.66R
$$

ILZ079-100>102-202200-
SOUTHWEST ILLINOIS

CITY           SKY/WX    TMP DP  RH WIND       PRES   REMARKS
ALTON          CLOUDY    52  48  87 S12       29.59S
BELLEVILLE     CLOUDY    54  54 100 SE5       29.58R
CAHOKIA*       CLOUDY    55  48  77 S6        29.57F
SPARTA*        CLOUDY    56  51  82 S12G18    29.60F
$$

ILZ064>066-069>071-074>076-080>082-084>086-088>090-092>094-202200-
SOUTH-CENTRAL ILLINOIS

CITY           SKY/WX    TMP DP  RH WIND       PRES   REMARKS
CARBONDALE     CLOUDY    58  55  90 S10       29.62S
CAIRO*         CLOUDY    60  55  85 SW7       29.64R
EFFINGHAM*     CLOUDY    54  52  94 CALM      29.64S
MARION         CLOUDY    61  57  88 S12       29.64S
MT. VERNON     CLOUDY    57  53  86 S9        29.62F
CENTRALIA*     CLOUDY    56  54  91 S8        29.60S
SALEM*         CLOUDY    57  51  81 S6        29.61S
METROPOLIS*    PTSUNNY   62  54  75 S10       29.65S
$$

ILZ067-068-072-073-078-083-087-091-202200-
SOUTHEAST ILLINOIS

CITY           SKY/WX    TMP DP  RH WIND       PRES   REMARKS
LAWRENCEVILLE  CLOUDY    58  53  84 S12       29.66R
FLORA*         CLOUDY    58  53  84 S9        29.63S
FAIRFIELD*     CLOUDY    57  53  86 S6        29.63S
HARRISBURG*    CLOUDY    60  55  83 S9        29.64F
ROBINSON*      CLOUDY    55  50  86 S6        29.66R
CARMI*         CLOUDY    58  55  87 S10       29.64F
$$

ABBREVIATIONS USED IN REMARKS
   TC - TEMPERATURE IN CELSIUS
  WCI - WIND CHILL INDEX
   HX - HEAT INDEX
  VSB - VISIBILITY
$$





USA.gov is the U.S. government's official web portal to all federal, state and local government web resources and services.